TimeCDT,TemperatureF,Dew PointF,Humidity,Sea Level PressureIn,VisibilityMPH,Wind Direction,Wind SpeedMPH,Gust SpeedMPH,PrecipitationIn,Events,Conditions,WindDirDegrees,DateUTC
12:54 AM,73.0,69.1,87,30.02,10.0,SSE,3.5,-,N/A,,Clear,160,2013-06-25 05:54:00
1:54 AM,72.0,69.1,91,30.02,10.0,Calm,Calm,-,N/A,,Clear,0,2013-06-25 06:54:00
2:54 AM,73.0,69.1,87,30.01,10.0,South,3.5,-,N/A,,Clear,190,2013-06-25 07:54:00
3:54 AM,73.0,70.0,90,30.02,10.0,SW,3.5,-,N/A,,Clear,220,2013-06-25 08:54:00
4:54 AM,72.0,70.0,93,30.02,9.0,SSE,3.5,-,N/A,,Clear,150,2013-06-25 09:54:00
5:54 AM,72.0,70.0,93,30.05,6.0,Calm,Calm,-,N/A,,Clear,0,2013-06-25 10:54:00
6:54 AM,73.9,71.1,91,30.04,8.0,South,4.6,-,N/A,,Clear,190,2013-06-25 11:54:00
7:54 AM,75.9,72.0,87,30.04,9.0,SSW,5.8,-,N/A,,Clear,200,2013-06-25 12:54:00
8:54 AM,81.0,73.9,79,30.04,10.0,SW,6.9,-,N/A,,Clear,220,2013-06-25 13:54:00
9:54 AM,84.0,73.9,72,30.03,10.0,SSW,8.1,-,N/A,,Clear,210,2013-06-25 14:54:00
10:54 AM,87.1,75.0,67,30.03,10.0,WSW,9.2,-,N/A,,Partly Cloudy,240,2013-06-25 15:54:00
11:54 AM,89.1,73.9,61,30.02,10.0,SSW,9.2,-,N/A,,Partly Cloudy,210,2013-06-25 16:54:00
12:54 PM,88.0,73.9,63,30.00,10.0,SSW,11.5,18.4,N/A,,Partly Cloudy,210,2013-06-25 17:54:00
1:54 PM,88.0,73.0,61,29.99,10.0,SSW,10.4,20.7,N/A,,Scattered Clouds,210,2013-06-25 18:54:00
2:54 PM,89.1,73.0,59,29.97,10.0,SSW,10.4,-,N/A,,Mostly Cloudy,210,2013-06-25 19:54:00
3:54 PM,89.1,72.0,57,29.95,10.0,SSW,13.8,19.6,N/A,,Scattered Clouds,210,2013-06-25 20:54:00
4:54 PM,88.0,72.0,59,29.93,10.0,SW,11.5,-,N/A,,Partly Cloudy,220,2013-06-25 21:54:00
5:54 PM,89.1,72.0,57,29.90,10.0,SW,12.7,-,N/A,,Clear,220,2013-06-25 22:54:00
6:54 PM,87.1,72.0,61,29.88,10.0,SSW,12.7,18.4,N/A,,Clear,210,2013-06-25 23:54:00
7:54 PM,84.9,72.0,65,29.90,10.0,SSW,6.9,-,N/A,,Clear,200,2013-06-26 00:54:00
8:54 PM,82.9,73.0,72,29.91,10.0,South,5.8,-,N/A,,Clear,190,2013-06-26 01:54:00
9:54 PM,82.9,73.0,72,29.92,10.0,South,8.1,-,N/A,,Clear,190,2013-06-26 02:54:00
10:54 PM,81.0,73.0,77,29.93,10.0,South,6.9,-,N/A,,Clear,190,2013-06-26 03:54:00
11:54 PM,81.0,73.0,77,29.93,10.0,South,8.1,-,N/A,,Clear,190,2013-06-26 04:54:00